Hourly Data Report for October 06, 2015

All times are specified in Local Standard Time (LST). Add 1 hour to adjust for Daylight Saving Time where and when it is observed.

CHARLOTTETOWN A
PRINCE EDWARD ISLAND

46°17'21.000" N
63°07'09.000" W
48.50 m
8300301
71706
YYG

Download Data

Hourly Data (October 2015)
Hourly Data Report for October 6, 2015
Temp Definition
°C
Dew Point Temp Definition
°C
Rel Hum Definition
%
Wind Dir Definition
10's deg

Wind Spd Definition
km/h
Visibility Definition
km
Stn Press Definition
kPa
Hmdx Definition


Wind Chill Definition


Weather Definition


TIME
00:00 Legend Double Dagger 10.2 9.9 98 19 10 24.1 101.32     LegendNANA
01:00 Legend Double Dagger 8.1 7.8 98 30 3 24.1 101.24     LegendNANA
02:00 Legend Double Dagger 10.8 10.4 97 21 9 24.1 101.20     Cloudy
03:00 Legend Double Dagger 10.6 9.8 95 20 10 24.1 101.11     LegendNANA
04:00 Legend Double Dagger 10.4 9.8 96 20 9 24.1 101.08     LegendNANA
05:00 Legend Double Dagger 10.1 9.0 93 20 6 24.1 101.03     Mostly Cloudy
06:00 Legend Double Dagger 9.2 9.1 99 23 7 24.1 101.02     LegendNANA
07:00 Legend Double Dagger 6.7 6.6 99 32 4 24.1 101.02     LegendNANA
08:00 Legend Double Dagger 11.4 11.0 97 15 6 24.1 100.98     Mainly Clear
09:00 Legend Double Dagger 13.1 10.8 86 16 5 24.1 100.93     LegendNANA
10:00 Legend Double Dagger 14.6 10.1 74 9 7 24.1 100.90     LegendNANA
11:00 Legend Double Dagger 15.0 9.8 71 36 2 24.1 100.86     Mainly Clear
12:00 Legend Double Dagger 15.6 9.3 66 36 3 24.1 100.80     LegendNANA
13:00 Legend Double Dagger 16.2 8.3 59 3 4 24.1 100.71     LegendNANA
14:00 Legend Double Dagger 16.8 8.3 57 22 7 24.1 100.64     Mainly Clear
15:00 Legend Double Dagger 15.4 10.8 74 1 15 24.1 100.61     LegendNANA
16:00 Legend Double Dagger 14.8 10.5 75 4 12 24.1 100.59     LegendNANA
17:00 Legend Double Dagger 13.8 10.4 80 1 10 24.1 100.56     Mainly Clear
18:00 Legend Double Dagger 11.6 10.2 91 33 8 24.1 100.54     LegendNANA
19:00 Legend Double Dagger 9.9 9.5 97 33 5 24.1 100.52     LegendNANA
20:00 Legend Double Dagger 8.3 8.2 99 36 2 24.1 100.51     Clear
21:00 Legend Double Dagger 7.6 7.5 99 32 5 24.1 100.53     LegendNANA
22:00 Legend Double Dagger 6.3 6.2 99 35 4 24.1 100.48     LegendNANA
23:00 Legend Double Dagger 6.1 6.0 99 33 6 1.6 100.45     Fog

Notes on Data Quality.

Legend

  • E = Estimated
  • M = Missing
  • NA = Not Available
  • ‡ = Partner data that is not subject to review by the National Climate Archives
Date modified: